Warrenton, VA

2:43 AM EDT on March 27, 2017 (GMT -0400)
Warrenton

Weather History for KHWY - November, 2014

Change the Weather History Date:

Thursday, November 20, 2014

  Actual Average (KHEF) Record (KHEF)
Temperature  
Mean Temperature 40 °F -  
Max Temperature 57 °F 53 °F 71 °F (1999)
Min Temperature 24 °F 30 °F 17 °F (2000)
Degree Days  
Heating Degree Days 25    
Moisture  
Dew Point 24 °F    
Average Humidity 56    
Maximum Humidity 86    
Minimum Humidity 33    
Precipitation  
Precipitation 0.00 in - - ()
Sea Level Pressure  
Sea Level Pressure 29.98 in    
Wind  
Wind Speed 7 mph (SW)    
Max Wind Speed 14 mph    
Max Gust Speed 18 mph    
Visibility 10 miles    
Events      
Averages and records for this station are not official NWS values.
T = Trace of Precipitation, MM = Missing Value Source: NWS Daily Summary

Daily Weather History Graph

Daily Weather History Graph

Search for Another Location

Airport or City:

Trip Planner

Search our weather history database for the weather conditions in past years. The results will help you decide how hot, cold, wet, or windy it might be!

Date:

Astronomy

Nov. 20, 2014 Rise Set
Actual Time 6:58 AM EST 4:54 PM EST
Civil Twilight 6:29 AM EST 5:23 PM EST
Nautical Twilight 5:57 AM EST 5:55 PM EST
Astronomical Twilight 5:25 AM EST 6:26 PM EST
Moon 4:52 AM EST (11/20) 3:55 PM EST (11/20)
Length of Visible Light 10h 53m
Length of Day
9h 56m
Waning Crescent, 4% of the Moon is Illuminated
Nov 20
Waning Crescent
Nov 22
New
Nov 29
First Quarter
Dec 6
Full
Dec 14
Last Quarter

Hourly Weather History & Observations

Time (EST) Temp. Windchill Dew Point Humidity Pressure Visibility Wind Dir Wind Speed Gust Speed Precip Events Conditions
12:15 AM 34.7 °F 27.5 °F 19.4 °F 54% 30.04 in 10.0 mi SSW 9.2 mph - N/A   Clear
12:35 AM 34.7 °F 27.5 °F 19.6 °F 54% 30.04 in 10.0 mi SSW 9.2 mph 16.1 mph N/A   Clear
12:55 AM 34.3 °F 27.0 °F 19.8 °F 55% 30.03 in 10.0 mi SSW 9.2 mph - N/A   Clear
1:15 AM 34.2 °F 28.2 °F 19.9 °F 56% 30.03 in 10.0 mi SSW 6.9 mph - N/A   Clear
1:35 AM 34.2 °F 28.2 °F 19.8 °F 56% 30.02 in 10.0 mi SSW 6.9 mph - N/A   Clear
1:55 AM 33.6 °F 26.8 °F 19.9 °F 57% 30.02 in 10.0 mi SSW 8.1 mph - N/A   Clear
2:15 AM 33.6 °F 26.8 °F 20.3 °F 58% 30.01 in 10.0 mi SSW 8.1 mph - N/A   Clear
2:35 AM 33.8 °F 25.8 °F 20.3 °F 58% 30.01 in 10.0 mi SSW 10.4 mph - N/A   Clear
2:50 AM 33.8 °F 26.4 °F 20.3 °F 58% 30.01 in 10.0 mi SSW 9.2 mph - N/A   Clear
3:15 AM 33.3 °F 26.4 °F 20.3 °F 59% 30.00 in 10.0 mi SSW 8.1 mph - N/A   Clear
3:35 AM 32.7 °F 27.3 °F 20.3 °F 60% 30.00 in 10.0 mi SSW 5.8 mph - N/A   Clear
3:55 AM 32.2 °F 27.7 °F 20.3 °F 62% 30.00 in 10.0 mi SSW 4.6 mph - N/A   Clear
4:15 AM 32.0 °F 27.5 °F 20.3 °F 62% 29.99 in 10.0 mi SSW 4.6 mph - N/A   Clear
4:35 AM 32.0 °F 27.5 °F 20.8 °F 63% 29.99 in 10.0 mi SSW 4.6 mph - N/A   Clear
4:55 AM 32.0 °F 25.6 °F 21.0 °F 64% 29.99 in 10.0 mi South 6.9 mph - N/A   Clear
5:15 AM 32.0 °F 25.6 °F 21.2 °F 64% 29.99 in 10.0 mi SSW 6.9 mph - N/A   Clear
5:35 AM 32.4 °F 26.9 °F 21.2 °F 63% 29.99 in 10.0 mi SSW 5.8 mph - N/A   Clear
5:55 AM 32.4 °F 26.9 °F 21.2 °F 63% 29.99 in 10.0 mi SSW 5.8 mph - N/A   Clear
6:15 AM 32.0 °F 27.5 °F 21.2 °F 64% 29.99 in 10.0 mi SSW 4.6 mph - N/A   Clear
6:35 AM 32.0 °F 26.4 °F 21.6 °F 65% 29.99 in 10.0 mi South 5.8 mph - N/A   Clear
6:55 AM 32.0 °F 27.5 °F 21.7 °F 66% 29.98 in 10.0 mi South 4.6 mph - N/A   Clear
7:15 AM 32.0 °F 28.7 °F 21.7 °F 66% 29.98 in 10.0 mi South 3.5 mph - N/A   Clear
7:35 AM 32.2 °F 28.9 °F 22.5 °F 67% 29.99 in 10.0 mi SSW 3.5 mph - N/A   Scattered Clouds
7:55 AM 31.3 °F - 23.0 °F 71% 29.99 in 10.0 mi Calm Calm - N/A   Mostly Cloudy
8:15 AM 31.5 °F - 23.5 °F 73% 30.00 in 10.0 mi Calm Calm - N/A   Mostly Cloudy
8:35 AM 34.0 °F - 25.0 °F 70% 30.00 in 10.0 mi Calm Calm - N/A   Mostly Cloudy
8:55 AM 36.5 °F - 25.0 °F 63% 30.00 in 10.0 mi Calm Calm - N/A   Overcast
9:15 AM 38.7 °F 35.2 °F 25.5 °F 59% 30.00 in 10.0 mi SSW 4.6 mph - N/A   Overcast
9:35 AM 41.0 °F 35.8 °F 25.9 °F 55% 29.99 in 10.0 mi SSW 8.1 mph - N/A   Mostly Cloudy
9:55 AM 43.0 °F 38.8 °F 26.6 °F 52% 29.98 in 10.0 mi South 6.9 mph - N/A   Scattered Clouds
10:15 AM 45.3 °F 42.3 °F 27.5 °F 50% 29.98 in 10.0 mi SSW 5.8 mph - N/A   Clear
10:35 AM 47.7 °F - 28.9 °F 48% 29.98 in 10.0 mi SW 8.1 mph - N/A   Clear
10:55 AM 48.6 °F - 28.9 °F 47% 29.97 in 10.0 mi SSW 8.1 mph - N/A   Clear
11:15 AM 50.7 °F - 30.2 °F 45% 29.96 in 10.0 mi SW 5.8 mph - N/A   Clear
11:35 AM 51.8 °F - 30.7 °F 45% 29.95 in 10.0 mi SSW 11.5 mph 18.4 mph N/A   Clear
11:55 AM 52.9 °F - 31.3 °F 44% 29.94 in 10.0 mi SSW 11.5 mph 16.1 mph N/A   Clear
12:15 PM 53.8 °F - 31.6 °F 43% 29.92 in 10.0 mi SSW 9.2 mph - N/A   Clear
12:35 PM 54.5 °F - 31.8 °F 42% 29.91 in 10.0 mi SW 9.2 mph 17.3 mph N/A   Clear
12:55 PM 54.5 °F - 31.8 °F 42% 29.91 in 10.0 mi SW 8.1 mph - N/A   Clear
1:15 PM 55.4 °F - 31.8 °F 41% 29.90 in 10.0 mi SSW 6.9 mph 17.3 mph N/A   Clear
1:35 PM 55.4 °F - 31.8 °F 41% 29.89 in 10.0 mi SW 10.4 mph 17.3 mph N/A   Clear
1:55 PM 55.4 °F - 31.8 °F 41% 29.88 in 10.0 mi SW 4.6 mph - N/A   Clear
2:15 PM 56.8 °F - 30.4 °F 37% 29.87 in 10.0 mi SW 12.7 mph 17.3 mph N/A   Scattered Clouds
2:35 PM 56.8 °F - 29.3 °F 35% 29.88 in 10.0 mi WSW 13.8 mph 17.3 mph N/A   Clear
2:55 PM 56.3 °F - 28.4 °F 34% 29.88 in 10.0 mi WSW 9.2 mph 16.1 mph N/A   Clear
3:15 PM 56.5 °F - 27.9 °F 33% 29.88 in 10.0 mi WSW 8.1 mph 16.1 mph N/A   Clear
3:35 PM 55.6 °F - 27.3 °F 34% 29.89 in 10.0 mi WSW 11.5 mph 16.1 mph N/A   Clear
3:55 PM 54.7 °F - 26.1 °F 33% 29.90 in 10.0 mi SW 10.4 mph 16.1 mph N/A   Clear
4:15 PM 53.8 °F - 25.5 °F 34% 29.91 in 10.0 mi WSW 9.2 mph - N/A   Clear
4:35 PM 52.3 °F - 24.8 °F 34% 29.91 in 10.0 mi WSW 8.1 mph - N/A   Clear
4:55 PM 49.8 °F - 24.3 °F 37% 29.92 in 10.0 mi WSW 4.6 mph - N/A   Clear
5:15 PM 45.0 °F - 23.0 °F 42% 29.93 in 10.0 mi Calm Calm - N/A   Clear
5:35 PM 44.1 °F 40.8 °F 21.9 °F 42% 29.94 in 10.0 mi West 5.8 mph - N/A   Clear
5:55 PM 43.7 °F 40.3 °F 20.8 °F 40% 29.95 in 10.0 mi WNW 5.8 mph - N/A   Clear
6:15 PM 41.9 °F 38.2 °F 21.2 °F 44% 29.96 in 10.0 mi NW 5.8 mph - N/A   Clear
6:35 PM 40.5 °F 37.3 °F 21.2 °F 46% 29.98 in 10.0 mi NW 4.6 mph - N/A   Clear
6:55 PM 40.6 °F 36.7 °F 22.6 °F 49% 29.99 in 10.0 mi NW 5.8 mph - N/A   Clear
7:15 PM 38.5 °F 34.1 °F 23.4 °F 55% 30.00 in 10.0 mi NW 5.8 mph - N/A   Clear
7:35 PM 37.8 °F 35.3 °F 22.5 °F 54% 30.01 in 10.0 mi North 3.5 mph - N/A   Clear
7:55 PM 32.7 °F 29.6 °F 22.6 °F 66% 30.02 in 10.0 mi East 3.5 mph - N/A   Clear
8:15 PM 33.8 °F 29.6 °F 22.5 °F 63% 30.03 in 10.0 mi ENE 4.6 mph - N/A   Clear
8:35 PM 32.4 °F - 22.5 °F 67% 30.03 in 10.0 mi Calm Calm - N/A   Clear
8:55 PM 34.0 °F - 22.1 °F 62% 30.04 in 10.0 mi Calm Calm - N/A   Clear
9:15 PM 31.3 °F - 22.5 °F 70% 30.05 in 10.0 mi Calm Calm - N/A   Clear
9:35 PM 28.0 °F 24.2 °F 22.3 °F 79% 30.05 in 10.0 mi ENE 3.5 mph - N/A   Clear
9:55 PM 30.2 °F 26.7 °F 21.9 °F 71% 30.06 in 10.0 mi East 3.5 mph - N/A   Clear
10:15 PM 28.0 °F - 21.6 °F 77% 30.06 in 10.0 mi Calm Calm - N/A   Clear
10:35 PM 24.8 °F - 21.0 °F 86% 30.07 in 10.0 mi Calm Calm - N/A   Clear
10:55 PM 25.2 °F - 21.0 °F 84% 30.08 in 10.0 mi Calm Calm - N/A   Clear
11:15 PM 24.4 °F - 20.5 °F 85% 30.09 in 10.0 mi Calm Calm - N/A   Clear
11:35 PM 27.1 °F - 21.0 °F 78% 30.09 in 10.0 mi Calm Calm - N/A   Clear
11:55 PM 30.0 °F 26.5 °F 21.2 °F 70% 30.10 in 10.0 mi NE 3.5 mph - N/A   Clear